Location: Góry Miechowskie
(50.3599°N, 20.1803°E)
Time: 03:16:18
(UTC+00:00)

Transit 2A Rocket - Pass Details

Date: 13 September 2024
Orbit: 582 x 908 km, 66.7° (Epoch: 10 October)

Event Time Altitude Azimuth Distance (km) Brightness Sun altitude
Exits shadow 02:44:40 - 299° (WNW) 3,269 7.9 -14.3°
Reaches altitude 10° 02:47:17 10° 315° (NW) 2,603 7.5 -13.9°
Maximum altitude 02:51:07 17° 354° (N) 2,137 7.5 -13.3°
Drops below altitude 10° 02:54:54 10° 34° (NNE) 2,563 8.6 -12.8°
Sets 02:58:21 0° 54° (NE) 3,460 10.1 -12.3°
